Location: Nashville
(36.1660°N, 86.7840°W)
Time: 05:42:05
(UTC-05:00)

O/OREOS (USA 219) - Visible Passes

Search period start: 22 May 2022 00:00
Search period end: 01 June 2022 00:00
Orbit: 621 x 646 km, 72.0° (Epoch: 22 May)

Date Brightness Start Highest point End Pass type
(mag) Time Alt. Az. Time Alt. Az. Time Alt. Az.
22 May ? 00:42:12 24° NNW 00:42:12 24° NNW 00:44:23 10° N visible
22 May ? 23:26:01 18° NE 23:26:01 18° NE 23:27:14 10° NE visible
23 May ? 01:03:25 15° NW 01:03:25 15° NW 01:05:20 10° NNW visible
23 May ? 23:47:11 29° N 23:47:11 29° N 23:49:27 10° NNE visible
24 May ? 22:30:53 12° ENE 22:30:53 12° ENE 22:31:16 10° NE visible
25 May ? 00:08:17 27° NW 00:08:17 27° NW 00:11:05 10° N visible
25 May ? 22:51:56 27° NE 22:51:56 27° NE 22:54:06 10° NNE visible
26 May ? 00:29:20 14° WNW 00:29:28 14° WNW 00:31:53 10° NNW visible
26 May ? 23:12:53 47° N 23:12:53 47° N 23:16:14 10° NNE visible
27 May ? 21:56:19 19° ENE 21:56:19 19° ENE 21:58:15 10° NE visible
27 May ? 23:33:43 27° WNW 23:33:57 27° WNW 23:37:48 10° N visible
28 May ? 22:17:02 54° E 22:17:02 54° E 22:20:57 10° NNE visible
28 May ? 23:54:24 10° W 23:56:20 13° WNW 23:58:19 10° NNW visible
29 May ? 21:00:11 10° E 21:00:11 10° E 21:00:44 10° E visible
29 May ? 22:37:34 45° WSW 22:38:35 57° WNW 22:43:00 10° NNE visible
30 May ? 21:20:29 24° SE 21:21:29 26° ESE 21:25:12 10° NE visible
30 May ? 22:57:49 13° WSW 23:00:47 25° WNW 23:04:29 10° N visible
31 May ? 21:40:25 20° S 21:43:21 65° ESE 21:47:48 10° NNE visible
31 May ? 23:21:46 10° WNW 23:23:12 11° NW 23:24:39 10° NW visible
